Wind_Speed
24 23 22 21 20 18 18 18 16 15 15 14 13 13 13 15 15 15 16 18 20 20 19 19 19 19 18 18 17 17 16 16 18 18 20 18 21 19 22 22 25 22 25 25 24
26 26 25 24 23 21 20 21 22 22 21 20 19 17 17 18 20 21 21 24 24 23 22 23 22 20 18 18 17 18 18 22 21 22 21 22 21 21 21 22 23 24 25 24 23
29 29 27 25 23 22 22 22 22 23 24 24 22 22 23 23 25 27 27 27 27 26 25 24 22 21 21 21 20 21 24 27 25 26 26 26 26 25 25 22 27 28 26 25 21
32 29 28 27 26 26 26 26 27 28 28 28 28 28 29 29 31 31 32 32 30 27 26 24 23 24 24 24 26 30 30 29 29 29 29 30 29 30 29 24 31 29 29 27 26
34 33 32 33 33 33 33 33 33 34 34 34 34 33 33 33 35 37 34 31 29 28 27 27 28 30 28 30 33 31 28 28 29 28 31 33 31 35 26 34 33 32 31 31 31
38 38 38 38 38 37 38 38 39 39 40 40 40 38 36 31 35 35 30 29 30 31 31 31 32 34 32 33 34 32 31 30 29 31 34 33 28 33 31 34 33 34 34 34 35
37 37 36 36 36 35 34 34 34 34 35 36 37 35 30 28 32 35 36 35 34 34 33 35 37 38 35 35 35 36 36 34 32 34 38 40 29 33 35 35 33 33 34 36 37
38 37 38 38 37 37 36 37 36 37 37 37 37 37 35 35 37 39 40 38 37 36 38 39 40 39 38 40 40 40 42 38 35 36 45 47 34 32 35 38 33 34 34 36 37
40 40 41 41 41 41 42 42 43 43 43 44 44 44 41 37 36 38 39 39 40 40 40 41 42 43 41 43 47 45 48 45 41 37 47 51 44 34 36 39 33 31 36 35 37
41 41 41 41 42 42 42 43 44 45 45 45 47 45 45 41 41 41 41 41 44 45 44 44 46 47 42 46 50 48 50 51 51 39 46 49 54 45 39 38 33 31 33 36 35
44 44 44 43 43 44 44 44 45 48 47 48 50 50 51 48 46 44 43 43 44 45 45 44 48 49 44 49 48 50 53 54 52 52 52 47 51 48 45 34 35 36 37 37 38
48 48 47 47 48 49 49 49 48 49 50 48 48 50 49 49 49 43 40 42 42 44 47 49 53 53 49 48 51 52 56 57 57 56 56 54 49 46 50 44 40 38 39 40 38
53 51 51 52 53 52 52 52 53 54 54 50 49 52 53 52 51 50 48 48 48 50 50 52 52 51 49 51 51 52 54 55 56 55 55 58 57 54 49 47 45 45 43 40 43
55 55 55 57 56 57 57 56 55 56 56 58 58 56 57 57 57 53 52 49 46 43 42 48 46 46 49 48 49 51 51 53 56 56 57 57 59 50 50 51 52 47 46 48 45
49 53 55 57 57 57 56 55 52 52 55 57 57 56 51 49 48 47 43 42 42 40 42 43 43 44 48 50 50 51 50 48 49 52 54 52 57 57 55 57 58 56 52 52 50
46 47 47 48 50 50 50 47 45 45 55 50 49 49 48 48 47 46 46 46 45 44 42 43 46 48 46 47 49 50 51 53 54 55 59 58 59 62 60 63 63 63 59 55 52
48 48 45 47 51 50 45 45 49 54 57 55 51 49 50 49 44 42 41 42 43 46 47 46 47 50 49 50 50 50 53 57 61 62 63 60 65 65 64 65 65 64 63 62 62
52 47 49 50 53 51 50 48 52 56 56 54 55 56 53 51 46 44 41 41 44 46 48 50 50 54 57 57 58 59 59 59 62 64 68 67 72 69 68 69 71 72 70 69 69
51 52 52 54 56 53 53 52 53 55 55 56 57 57 51 49 47 47 46 45 47 49 53 54 54 57 58 59 60 62 59 60 61 61 62 68 69 63 69 69 68 69 70 72 72
50 53 56 53 54 54 56 60 58 54 54 56 56 55 55 52 51 49 48 49 49 51 54 55 59 56 59 59 60 59 57 56 52 51 55 63 66 70 61 65 64 64 65 65 68
66 65 61 65 62 60 59 56 54 55 58 60 60 61 60 65 67 69 72 66 54 49 51 58 59 54 58 57 55 57 58 57 58 61 66 68 66 62 60 60 60 62 65 68 66
72 71 68 69 67 70 69 69 71 67 72 66 60 59 56 47 50 48 48 46 48 49 51 53 58 57 54 54 57 59 57 53 52 60 61 61 60 51 56 63 68 68 68 66 68
71 74 72 73 74 73 70 68 66 64 62 60 59 56 48 48 52 49 49 50 50 51 54 56 59 60 59 56 57 58 60 62 61 58 67 70 67 59 63 65 68 71 66 61 64
67 70 72 72 69 67 64 65 66 63 60 56 51 49 50 51 52 54 53 54 54 55 56 59 60 61 62 61 59 62 61 61 55 61 55 59 68 64 66 72 76 75 73 75 77
69 70 69 68 68 65 65 66 65 61 59 54 54 54 55 56 55 56 56 57 56 56 57 60 62 61 63 63 63 65 66 63 65 65 71 76 75 71 72 78 83 85 82 82 84
71 67 67 66 63 64 63 61 58 56 54 54 55 57 56 56 57 57 58 59 58 58 59 62 66 65 67 65 66 70 69 69 69 70 75 79 84 80 85 86 88 88 87 87 89
66 63 62 61 58 56 54 50 51 53 55 54 55 57 58 59 60 59 59 60 61 61 62 65 67 68 74 68 71 79 73 76 79 80 83 86 87 88 88 89 90 90 87 88 88
Wind_Direction
255 259 263 265 267 265 259 254 249 244 249 256 263 268 277 283 286 289 293 297 297 296 293 290 289 289 289 288 293 296 301 302 297 298 298 302 298 297 293 288 288 287 288 290 289
256 262 264 265 263 261 259 255 252 251 253 258 266 271 277 283 288 290 290 294 292 288 285 284 284 281 280 283 290 293 298 294 296 294 290 294 293 292 292 288 284 288 291 295 295
256 257 258 257 256 256 255 255 257 258 260 263 265 270 275 280 283 285 288 290 287 283 281 280 278 279 283 285 287 291 297 293 291 288 288 286 284 285 285 291 283 285 292 296 297
254 253 255 257 258 257 258 259 260 260 261 262 263 267 272 278 280 280 286 287 281 278 277 277 279 281 285 282 283 288 291 290 291 287 286 282 283 280 286 290 281 289 292 293 294
253 255 258 260 262 263 264 264 264 265 266 266 267 270 273 276 277 281 282 280 277 279 279 280 283 286 286 287 288 291 293 293 290 291 285 281 285 287 291 279 283 286 289 294 297
257 259 262 264 266 267 267 267 267 267 268 269 271 273 274 274 275 280 278 275 277 278 278 280 282 286 288 289 288 291 290 291 292 290 286 285 288 287 283 280 283 286 288 289 288
259 262 262 262 264 266 267 267 269 270 270 270 271 271 269 270 274 276 278 279 279 279 280 282 283 285 288 286 289 290 287 290 291 295 294 289 286 285 283 286 288 288 284 279 279
259 259 261 262 263 264 266 266 268 269 270 270 271 270 270 272 275 275 275 278 277 278 281 283 284 284 285 288 289 289 288 285 287 294 294 291 289 285 289 286 289 284 278 277 276
260 262 263 264 266 266 266 268 269 269 270 271 271 272 271 271 270 271 273 275 277 278 279 280 281 282 284 287 287 289 287 287 287 293 288 287 294 287 284 286 290 282 278 276 276
262 262 263 265 267 268 270 271 271 271 270 272 272 272 272 270 269 270 270 272 275 276 277 278 278 278 282 283 283 286 287 289 290 287 283 286 295 296 287 284 288 283 281 276 273
260 261 263 264 265 268 270 271 271 271 271 272 274 274 276 275 271 269 270 271 273 275 276 278 281 282 281 279 280 281 283 284 287 287 284 283 286 291 293 291 284 284 278 276 276
261 262 263 265 268 268 270 272 273 272 271 274 274 275 274 275 274 274 272 271 271 272 274 277 278 279 275 274 277 280 281 283 283 284 285 286 282 284 287 292 289 280 278 280 279
262 263 265 267 268 269 271 272 273 273 273 272 273 275 276 275 278 280 278 275 272 271 274 272 272 271 267 269 271 273 276 279 283 285 284 285 286 287 289 289 288 288 287 279 277
262 264 265 268 268 270 270 271 272 273 274 274 272 271 274 276 279 282 280 278 273 270 268 266 261 264 269 268 271 274 274 279 280 281 284 286 287 292 294 295 290 295 294 296 295
262 264 265 264 267 268 270 271 273 276 274 275 278 280 281 280 282 282 279 275 273 268 267 269 266 264 266 270 272 274 279 280 281 281 282 284 291 297 297 293 293 299 303 302 301
261 262 264 263 264 267 271 272 273 274 273 274 278 280 282 281 278 274 274 276 275 271 268 268 269 270 270 271 274 279 280 280 280 281 279 288 291 290 294 294 296 297 298 296 296
262 261 264 263 262 264 271 272 272 271 272 275 276 277 277 277 275 272 270 269 270 272 273 272 274 274 274 276 280 281 283 284 282 284 285 289 285 286 288 292 292 291 291 291 289
256 263 269 266 263 265 267 268 267 270 274 275 274 272 268 267 260 264 268 268 265 265 269 272 273 277 279 281 282 284 284 283 285 285 283 282 283 287 288 288 288 288 287 286 287
259 264 269 264 263 265 267 271 276 276 277 272 268 268 264 262 264 266 265 267 273 280 280 280 279 282 285 285 287 285 284 284 284 283 280 280 281 278 286 285 284 282 281 282 282
265 263 267 267 268 263 267 273 267 263 266 267 269 267 266 267 270 272 274 275 278 279 280 280 280 281 281 282 282 283 282 281 280 269 269 274 277 284 285 281 281 281 280 278 278
263 260 259 263 266 261 260 262 262 264 267 269 269 274 278 279 280 284 289 292 289 283 279 276 275 279 276 282 281 278 279 280 277 274 275 278 282 289 283 283 285 284 284 283 280
265 267 264 265 262 266 268 274 275 277 278 280 281 283 285 283 277 277 280 279 280 279 280 280 279 281 281 282 282 282 284 281 274 281 284 280 277 282 277 279 279 280 281 279 284
263 264 265 266 267 270 272 273 275 276 278 279 278 278 272 270 271 273 275 276 277 279 280 280 280 283 283 281 283 279 278 278 279 277 272 276 280 282 280 278 278 279 277 272 270
261 262 265 266 268 273 274 274 276 277 276 274 271 267 267 267 268 271 273 274 276 278 278 277 277 280 280 282 280 277 277 278 277 280 285 274 282 283 283 282 282 280 276 274 272
261 261 265 269 272 275 274 275 275 274 272 268 265 265 265 267 267 272 273 274 278 278 277 276 277 277 277 278 276 274 274 274 274 276 272 277 280 283 279 272 272 276 276 276 274
261 270 272 273 274 272 271 274 270 267 265 263 263 264 264 266 267 268 271 272 274 275 275 276 279 279 278 278 277 276 275 279 277 279 278 279 278 280 275 275 275 274 273 272 273
272 272 272 273 271 269 269 266 261 262 263 263 264 264 265 266 267 267 267 269 273 274 276 278 280 280 279 280 279 276 284 281 280 280 281 281 280 278 276 276 276 277 278 278 277
Height
5866 5866 5867 5868 5868 5869 5869 5870 5870 5870 5871 5871 5871 5871 5872 5871 5871 5870 5870 5870 5869 5868 5867 5866 5865 5864 5863 5863 5862 5861 5861 5860 5859 5858 5855 5853 5852 5851 5849 5847 5845 5845 5843 5841 5841
5861 5863 5863 5864 5865 5865 5866 5866 5867 5867 5867 5868 5869 5868 5868 5868 5867 5867 5867 5865 5865 5864 5863 5862 5861 5860 5859 5858 5858 5857 5857 5855 5855 5853 5852 5849 5848 5847 5846 5844 5842 5840 5838 5838 5836
5857 5858 5859 5860 5861 5862 5862 5862 5863 5863 5864 5864 5865 5865 5864 5863 5863 5862 5861 5860 5859 5859 5857 5856 5856 5856 5856 5855 5854 5853 5852 5849 5849 5847 5847 5845 5843 5842 5841 5842 5837 5836 5836 5834 5833
5851 5852 5853 5855 5856 5857 5858 5858 5858 5859 5859 5859 5859 5860 5859 5858 5857 5855 5855 5855 5853 5853 5852 5851 5851 5851 5851 5850 5849 5848 5846 5844 5843 5841 5839 5838 5838 5837 5837 5838 5830 5831 5831 5830 5829
5845 5847 5848 5849 5850 5851 5852 5852 5852 5853 5853 5853 5853 5854 5854 5854 5850 5848 5849 5848 5847 5847 5846 5846 5845 5844 5845 5844 5842 5841 5841 5839 5836 5834 5831 5830 5832 5827 5834 5827 5827 5826 5826 5825 5823
5839 5840 5841 5842 5842 5843 5844 5844 5844 5844 5844 5845 5845 5846 5847 5848 5843 5841 5842 5842 5841 5841 5840 5839 5839 5837 5838 5837 5834 5834 5833 5832 5830 5827 5823 5823 5827 5821 5822 5821 5823 5821 5820 5818 5814
5831 5833 5833 5834 5834 5835 5836 5836 5836 5836 5836 5836 5836 5837 5839 5841 5838 5836 5835 5836 5835 5834 5834 5832 5831 5830 5830 5829 5828 5826 5824 5824 5823 5820 5815 5812 5822 5817 5814 5813 5815 5815 5813 5809 5806
5822 5824 5825 5826 5826 5827 5828 5829 5829 5829 5829 5829 5828 5828 5832 5833 5831 5830 5828 5828 5827 5827 5826 5825 5824 5822 5822 5821 5818 5818 5814 5815 5818 5815 5804 5800 5811 5812 5807 5804 5808 5806 5803 5800 5800
5814 5815 5816 5817 5818 5819 5821 5821 5821 5821 5821 5820 5820 5819 5822 5824 5823 5822 5821 5821 5819 5818 5817 5816 5814 5814 5816 5812 5808 5809 5804 5805 5806 5808 5795 5788 5793 5805 5801 5795 5798 5796 5793 5793 5790
5806 5807 5807 5808 5809 5810 5811 5811 5811 5811 5811 5811 5810 5812 5811 5814 5814 5813 5813 5813 5811 5810 5809 5808 5805 5803 5808 5803 5798 5798 5795 5792 5792 5800 5789 5783 5777 5786 5791 5789 5787 5786 5784 5783 5781
5795 5796 5797 5798 5798 5799 5800 5801 5802 5802 5801 5802 5801 5801 5800 5802 5803 5804 5804 5803 5803 5802 5800 5799 5797 5795 5797 5791 5791 5789 5785 5783 5785 5782 5779 5782 5773 5772 5773 5783 5779 5777 5774 5773 5773
5785 5786 5788 5788 5788 5789 5790 5790 5790 5790 5790 5791 5792 5790 5789 5789 5789 5793 5796 5794 5793 5792 5790 5789 5785 5786 5785 5783 5779 5778 5774 5773 5771 5770 5770 5766 5767 5769 5763 5766 5770 5768 5766 5766 5765
5775 5776 5777 5777 5778 5779 5779 5779 5779 5778 5778 5782 5782 5779 5777 5778 5779 5780 5783 5783 5782 5780 5780 5777 5774 5771 5773 5771 5770 5767 5765 5763 5761 5759 5759 5753 5753 5752 5757 5755 5754 5755 5757 5757 5757
5763 5765 5766 5766 5768 5768 5768 5768 5768 5767 5767 5766 5766 5770 5770 5769 5770 5768 5767 5768 5767 5768 5767 5765 5764 5763 5759 5759 5758 5759 5757 5755 5753 5749 5745 5742 5738 5745 5743 5739 5735 5739 5741 5740 5740
5753 5753 5754 5755 5756 5756 5757 5757 5758 5757 5755 5752 5750 5753 5757 5760 5759 5758 5758 5757 5756 5756 5756 5757 5757 5755 5752 5752 5749 5748 5747 5746 5745 5741 5737 5737 5730 5734 5733 5729 5727 5727 5726 5726 5727
5741 5741 5742 5744 5745 5746 5745 5746 5748 5748 5739 5743 5743 5743 5744 5745 5745 5745 5746 5746 5744 5743 5744 5745 5745 5744 5743 5742 5740 5739 5736 5734 5730 5729 5728 5731 5726 5728 5721 5715 5716 5717 5715 5716 5715
5729 5730 5731 5733 5733 5735 5736 5738 5738 5733 5731 5732 5733 5734 5733 5732 5732 5731 5733 5735 5734 5732 5730 5729 5730 5730 5729 5728 5727 5726 5725 5720 5717 5716 5718 5718 5713 5718 5711 5712 5707 5705 5703 5703 5703
5716 5718 5719 5720 5722 5723 5725 5726 5723 5720 5721 5726 5724 5722 5722 5721 5719 5719 5719 5723 5721 5719 5717 5715 5720 5716 5716 5717 5716 5712 5712 5707 5700 5704 5703 5704 5701 5705 5700 5698 5693 5692 5690 5686 5685
5704 5705 5707 5707 5708 5709 5712 5712 5712 5712 5713 5710 5709 5710 5711 5707 5705 5706 5708 5710 5709 5708 5703 5702 5706 5702 5702 5702 5703 5699 5698 5694 5685 5688 5681 5690 5689 5693 5687 5681 5681 5677 5675 5674 5670
5690 5692 5693 5693 5694 5695 5695 5697 5698 5698 5696 5695 5695 5698 5700 5694 5694 5693 5694 5699 5697 5695 5691 5689 5686 5695 5690 5692 5691 5684 5683 5680 5677 5669 5665 5671 5673 5674 5677 5661 5663 5661 5659 5657 5652
5674 5678 5682 5679 5681 5681 5683 5686 5688 5687 5684 5681 5682 5681 5685 5682 5678 5678 5680 5682 5680 5676 5676 5672 5665 5682 5671 5678 5676 5668 5665 5665 5661 5657 5648 5647 5652 5663 5652 5649 5645 5641 5637 5634 5631
5659 5661 5668 5665 5668 5667 5671 5672 5670 5669 5667 5666 5668 5664 5664 5663 5659 5660 5663 5663 5663 5662 5661 5658 5648 5652 5663 5662 5656 5651 5651 5650 5643 5637 5634 5628 5626 5646 5638 5635 5629 5625 5621 5616 5614
5644 5645 5649 5648 5649 5654 5656 5656 5653 5653 5651 5652 5652 5652 5651 5651 5646 5650 5650 5651 5650 5651 5645 5642 5635 5632 5640 5648 5644 5633 5635 5631 5630 5626 5617 5614 5613 5623 5618 5614 5609 5605 5605 5602 5597
5629 5629 5632 5630 5636 5636 5638 5639 5637 5638 5635 5637 5639 5637 5636 5637 5636 5636 5639 5636 5637 5636 5633 5627 5626 5624 5619 5623 5626 5617 5616 5616 5612 5605 5601 5596 5597 5604 5600 5591 5586 5585 5584 5580 5578
5611 5613 5616 5615 5622 5621 5619 5624 5623 5621 5623 5626 5624 5623 5622 5621 5622 5621 5621 5619 5621 5621 5618 5610 5607 5610 5604 5605 5605 5601 5598 5601 5596 5595 5586 5584 5579 5584 5580 5572 5563 5560 5561 5558 5555
5594 5596 5599 5601 5602 5603 5603 5611 5609 5606 5607 5610 5610 5606 5608 5608 5606 5607 5607 5603 5606 5605 5602 5596 5590 5589 5586 5589 5584 5575 5580 5582 5577 5575 5567 5562 5553 5559 5549 5547 5541 5538 5537 5534 5530
5578 5579 5580 5584 5585 5586 5590 5594 5593 5592 5590 5594 5594 5592 5591 5592 5590 5590 5590 5590 5589 5589 5586 5581 5573 5571 5562 5570 5562 5550 5568 5557 5554 5554 5547 5534 5531 5530 5525 5520 5517 5513 5510 5507 5504